User: anonymous   Login
Location: Unspecified
(0.0000°N, 0.0000°E)
Time: 03:33:37
(UTC+00:00)
Language:

APRIZESAT 10 - Orbit

View from above orbital plane
View from above orbital plane
View from above satellite
View from above satellite

Ground track
Ground track

The orbit data is extracted from the following two-line orbital elements,

1 40019U 14033K   17173.86586857 +.00000053 +00000-0 +17731-4 0  9998
2 40019 097.8361 045.5271 0083268 306.7671 052.5911 14.66876977161047
Epoch (UTC): 22 June 2017 20:46:51
Eccentricity: 0.0083268
inclination: 97.8361°
perigee height: 612 km
apogee height: 730 km
right ascension of ascending node: 45.5271°
argument of perigee: 306.7671°
revolutions per day: 14.66876977
mean anomaly at epoch: 52.5911°
orbit number at epoch: 16104

The dashed part of the orbit path shows where the satellite is in the earth's shadow,  

DLR